[[{"header":{"parameterUnit":"m.s-1","parameterCategory":1,"la1":30.2991,"la2":30.254,"lo1":-89.0895,"lo2":-89.0444,"dy":0.0017,"dx":0.0017,"nx":28,"ny":28,"refTime":"2024-04-27T03:00:00:Z","depth":0,"parameterNumber":2,"parameterNumberName":"U-component_of_WINDS"},"data":[0,0,0,0,0,0,0,0,0,0,0,0,0,0,0,0,0,0,0,0,0,0,0,0,0,0,0,0,0,0,0,0,0,0,0,0,0,0,0,0,0,0,0,0,0,0,0,0,0,0,0,0,0,0,0,0,0,0,-6.194,-6.1941,0,-6.2022,-6.2022,-6.2023,-6.1956,-6.1953,-6.195,-6.1947,-6.2027,-6.2031,-6.2036,0,0,0,0,0,0,0,0,0,0,0,0,0,-6.1723,-6.1727,-6.194,-6.1941,-6.1942,-6.2021,-6.2023,-6.2024,-6.1956,-6.1953,-6.1949,-6.1946,-6.2025,-6.2031,-6.2037,0,0,0,0,0,0,0,0,0,0,0,0,0,-6.1812,-6.1729,-6.194,-6.1918,-6.1917,-6.2021,-6.2023,-6.2024,-6.1957,-6.1953,-6.1948,-6.1944,-6.2023,-6.203,-6.2037,-6.2166,0,0,-6.2059,-6.2062,0,0,0,0,0,0,0,0,-6.1807,-6.182,-6.192,-6.192,-6.1919,-6.1974,-6.1975,-6.2071,-6.1958,-6.1942,-6.1947,-6.1942,-6.2012,-6.202,-6.2045,-6.217,-6.2173,-6.206,-6.2064,-6.2067,-6.2069,0,0,0,0,0,0,0,-6.1801,-6.1816,-6.1972,-6.1922,-6.1921,-6.1903,-6.1911,-6.1993,-6.2,-6.1943,-6.1938,-6.1949,-6.2011,-6.2038,-6.2046,-6.2174,-6.206,-6.2066,-6.207,-6.2073,-6.2407,-6.2412,0,0,0,0,0,0,-6.1798,-6.1812,-6.197,-6.1975,-6.1852,-6.1911,-6.192,-6.1961,-6.1999,-6.2,-6.1952,-6.1945,-6.2028,-6.2038,-6.2049,-6.2199,-6.2067,-6.2074,-6.2078,-6.2403,-6.2408,-6.2413,0,0,0,0,0,0,-6.1793,-6.1812,-6.1966,-6.1892,-6.191,-6.1919,-6.1966,-6.1964,-6.1991,-6.2006,-6.2006,-6.1979,-6.2025,-6.2039,-6.2137,-6.2201,-6.2077,-6.2083,-6.2397,-6.2405,-6.2411,-6.2504,0,0,0,0,0,0,-6.1787,-6.1811,-6.1861,-6.1894,-6.1914,-6.2055,-6.197,-6.1969,-6.2004,-6.1996,-6.2031,-6.2032,-6.2023,-6.2127,-6.2144,-6.2209,-6.2089,-6.2392,-6.2401,-6.2409,-6.2495,-6.2513,-6.2529,0,0,0,0,0,-6.178,-6.1883,-6.1864,-6.1883,-6.1977,-6.2059,-6.207,-6.2058,-6.201,-6.2059,-6.2068,-6.2031,-6.2193,-6.2138,-6.2157,-6.2224,-6.2387,-6.2398,-6.2408,-6.2487,-6.251,-6.2528,0,0,0,0,0,0,-6.1856,-6.1887,-6.1865,-6.1983,-6.2019,-6.2047,-6.2108,-6.2082,-6.2131,-6.2121,-6.2103,-6.2112,-6.2215,-6.223,-6.2168,-6.235,-6.2282,-6.2297,-6.2336,-6.2357,-6.2373,-6.2366,-6.2095,0,0,0,0,0,-6.1887,-6.1952,-6.1975,-6.2076,-6.2096,-6.21,-6.2135,-6.2123,-6.2158,-6.2172,-6.2189,-6.2224,-6.2283,-6.2321,-6.2376,-6.2499,-6.2504,-6.2555,-6.2571,-6.2585,-6.2596,-6.266,-6.2682,-6.2448,-6.2447,-6.2447,0,0,-6.195,-6.1975,-6.2017,-6.2092,-6.2118,-6.2185,-6.2112,-6.2186,-6.2234,-6.2183,-6.2276,-6.2291,-6.2329,-6.244,-6.2489,-6.2455,-6.2663,-6.2598,-6.2609,-6.2613,-6.2673,-6.2695,-6.2715,-6.2455,-6.2453,-6.2452,0,0,-6.2098,-6.2126,-6.2212,-6.224,-6.2282,-6.2284,-6.2305,-6.2338,-6.2345,-6.244,-6.2403,-6.246,-6.2562,-6.259,-6.2617,-6.2779,-6.2746,-6.2798,-6.2883,-6.2946,-6.2964,-6.298,-6.3035,-6.3055,-6.281,-6.281,-6.281,0,-6.2171,-6.227,-6.2259,-6.2335,-6.2368,-6.2328,-6.2414,-6.2442,-6.2499,-6.2522,-6.2485,-6.2611,-6.2634,-6.275,-6.2789,-6.2814,-6.2836,-6.2791,-6.2963,-6.2979,-6.2994,-6.3046,-6.3067,-6.2816,-6.2815,-6.2815,-6.2814,0,-6.2357,-6.2426,-6.2491,-6.2548,-6.2589,-6.267,-6.267,-6.2713,-6.2698,-6.2704,-6.28,-6.2827,-6.2886,-6.2913,-6.2899,-6.3027,-6.3004,-6.2966,-6.2896,-6.3022,-6.307,-6.309,-6.2824,-6.2822,-6.282,-6.2819,0,0,-6.2551,-6.2603,-6.2626,-6.2651,-6.2695,-6.2748,-6.2827,-6.2886,-6.2922,-6.2964,-6.3027,-6.3116,-6.308,-6.3112,-6.3101,-6.3156,-6.3279,-6.311,-6.3111,-6.3137,-6.3418,-6.3444,-6.3468,-6.326,-6.3263,-6.3266,-6.3414,0,-6.2699,-6.2837,-6.283,-6.2959,-6.3021,-6.2985,-6.3054,-6.3088,-6.3096,-6.315,-6.3159,-6.322,-6.317,-6.3189,-6.3243,-6.3253,-6.3335,-6.3243,-6.3316,-6.3319,-6.3303,-6.3493,-6.3521,-6.3659,-6.3433,-6.3436,-6.3439,0,-6.2889,-6.2938,-6.3073,-6.3107,-6.3133,-6.3195,-6.3248,-6.3301,-6.3338,-6.334,-6.3377,-6.3357,-6.3436,-6.3368,-6.3475,-6.3412,-6.3443,-6.3453,-6.3458,-6.346,-6.3383,-6.3497,-6.3703,-6.3722,-6.3469,-6.3467,-6.3464,0,-6.3013,-6.3113,-6.3206,-6.3229,-6.3272,-6.3316,-6.3336,-6.337,-6.3405,-6.3452,-6.3475,-6.353,-6.3559,-6.3602,-6.3597,-6.3549,-6.3705,-6.3637,-6.3707,-6.3707,-6.3737,-6.3735,-6.3946,-6.3764,-6.3764,-6.3764,-6.3763,0,-6.3176,-6.3259,-6.3262,-6.3319,-6.3411,-6.3403,-6.3494,-6.3509,-6.354,-6.3598,-6.3571,-6.3626,-6.3619,-6.3674,-6.3671,-6.3758,-6.3773,-6.3775,-6.3772,-6.3775,-6.3774,-6.3791,-6.378,-6.3769,-6.3768,-6.3767,-6.3766,0,-6.3328,-6.3334,-6.3433,-6.3467,-6.3477,-6.3543,-6.3571,-6.3624,-6.3632,-6.3706,-6.3723,-6.3734,-6.3797,-6.3798,-6.3871,-6.3869,-6.3975,-6.3963,-6.3962,-6.3958,-6.4026,-6.4018,-6.4253,-6.4282,-6.4085,-6.4086,-6.4088,0,-6.343,-6.3493,-6.3534,-6.3572,-6.3594,-6.3656,-6.3692,-6.3687,-6.3726,-6.3774,-6.3822,-6.3883,-6.3931,-6.4035,-6.4048,-6.4103,-6.409,-6.4169,-6.4098,-6.4099,-6.4087,-6.4082,-6.4087,-6.4181,-6.4184,-6.4185,-6.4187,0,-6.3608,-6.3609,-6.3663,-6.3719,-6.3764,-6.3808,-6.3848,-6.388,-6.388,-6.3925,-6.399,-6.4028,-6.4103,-6.4163,-6.4217,-6.4236,-6.4211,-6.421,-6.4228,-6.4229,-6.4224,-6.4224,-6.3995,-6.4203,-6.4202,-6.42,-6.42,-6.4199,-6.3736,-6.379,-6.3827,-6.3888,-6.3919,-6.3957,-6.4009,-6.4023,-6.4078,-6.4139,-6.4133,-6.4205,-6.4241,-6.431,-6.4335,-6.439,-6.4362,-6.4389,-6.4396,-6.4401,-6.4407,-6.422,-6.44,-6.44,-6.4399,-6.4399,-6.4398,0,-6.391,-6.3933,-6.399,-6.4047,-6.4095,-6.4071,-6.4114,-6.4156,-6.422,-6.4256,-6.4305,-6.4379,-6.4438,-6.4458,-6.4514,-6.4555,-6.4545,-6.4569,-6.4564,-6.4568,-6.443,-6.4407,-6.4577,-6.4577,-6.4577,-6.4577,-6.4577,-6.4576,-6.4006,-6.4095,-6.41,-6.4204,-6.4226,-6.4297,-6.4323,-6.4358,-6.4387,-6.4472,-6.4521,-6.4534,-6.4563,-6.4622,-6.4674,-6.4679,-6.4699,-6.4728,-6.4727,-6.4597,-6.4578,-6.4561,-6.4539,-6.4734,-6.4734,-6.486,-6.4861,-6.4862]},{"header":{"parameterUnit":"m.s-1","parameterCategory":1,"la1":30.2991,"la2":30.254,"lo1":-89.0895,"lo2":-89.0444,"dy":0.0017,"dx":0.0017,"nx":28,"ny":28,"refTime":"2024-04-27T03:00:00:Z","depth":0,"parameterNumber":3,"parameterNumberName":"V-component_of_WINDS"},"data":[0,0,0,0,0,0,0,0,0,0,0,0,0,0,0,0,0,0,0,0,0,0,0,0,0,0,0,0,0,0,0,0,0,0,0,0,0,0,0,0,0,0,0,0,0,0,0,0,0,0,0,0,0,0,0,0,0,0,3.9009,3.9009,0,3.9074,3.9075,3.9075,3.904,3.9039,3.9037,3.9035,3.9098,3.9101,3.9104,0,0,0,0,0,0,0,0,0,0,0,0,0,3.8852,3.8855,3.9009,3.901,3.901,3.9074,3.9075,3.9076,3.9041,3.9039,3.9036,3.9034,3.9097,3.9101,3.9105,0,0,0,0,0,0,0,0,0,0,0,0,0,3.8919,3.8856,3.9009,3.9001,3.9001,3.9074,3.9075,3.9076,3.9041,3.9039,3.9036,3.9033,3.9096,3.91,3.9105,3.9189,0,0,3.912,3.9123,0,0,0,0,0,0,0,0,3.8915,3.8924,3.9001,3.9001,3.9001,3.9046,3.9042,3.9114,3.9042,3.9026,3.9035,3.9032,3.9083,3.9089,3.9106,3.9192,3.9194,3.9121,3.9124,3.9126,3.9127,0,0,0,0,0,0,0,3.891,3.8921,3.9034,3.9002,3.9002,3.8993,3.9,3.9056,3.9068,3.9027,3.9024,3.9033,3.9082,3.9102,3.9108,3.9195,3.9121,3.9125,3.9128,3.913,3.9353,3.9356,0,0,0,0,0,0,3.8906,3.8918,3.9032,3.9036,3.8951,3.8998,3.9005,3.9035,3.9067,3.907,3.9035,3.9031,3.9095,3.9102,3.911,3.921,3.9126,3.9131,3.9134,3.935,3.9354,3.9357,0,0,0,0,0,0,3.8903,3.8917,3.903,3.8977,3.899,3.9004,3.9037,3.9037,3.9057,3.9074,3.9075,3.9053,3.9093,3.9103,3.917,3.9211,3.9133,3.9137,3.9347,3.9351,3.9355,3.941,0,0,0,0,0,0,3.8899,3.8916,3.8948,3.8978,3.8993,3.9089,3.9039,3.904,3.9066,3.9061,3.9091,3.9093,3.9091,3.9163,3.9175,3.9217,3.9141,3.9343,3.9349,3.9354,3.9405,3.9416,3.9426,0,0,0,0,0,3.8893,3.896,3.895,3.8964,3.9034,3.9092,3.9101,3.9099,3.9069,3.9101,3.9113,3.9092,3.9205,3.917,3.9183,3.9227,3.934,3.9347,3.9353,3.94,3.9414,3.9425,0,0,0,0,0,0,3.8933,3.8963,3.8953,3.9031,3.906,3.9086,3.9126,3.9113,3.9149,3.9143,3.9138,3.9145,3.9215,3.9228,3.9188,3.931,3.9268,3.9278,3.9299,3.9312,3.9322,3.9317,3.9145,0,0,0,0,0,3.8951,3.8997,3.9021,3.9087,3.9103,3.9112,3.9137,3.9134,3.9162,3.9174,3.919,3.9217,3.9259,3.9286,3.9326,3.9407,3.9413,3.9444,3.9455,3.9463,3.9471,3.9515,3.953,3.9379,3.9379,3.9378,0,0,3.8988,3.9011,3.904,3.9096,3.9118,3.9164,3.9122,3.9173,3.9207,3.9181,3.9245,3.9259,3.9289,3.9364,3.9398,3.9377,3.9514,3.9472,3.9478,3.9481,3.9524,3.9538,3.9551,3.9383,3.9382,3.9382,0,0,3.908,3.9102,3.916,3.9184,3.9218,3.9224,3.9238,3.9268,3.9276,3.9341,3.9322,3.9363,3.9435,3.9458,3.9479,3.9583,3.9565,3.9596,3.9649,3.9693,3.9705,3.9715,3.9752,3.9765,3.9604,3.9604,3.9604,0,3.9121,3.9192,3.9191,3.9245,3.927,3.9251,3.9309,3.9332,3.9376,3.9394,3.9371,3.9462,3.9481,3.9561,3.9587,3.9605,3.962,3.9591,3.9703,3.9714,3.9724,3.9758,3.9772,3.9607,3.9607,3.9607,3.9606,0,3.9242,3.9291,3.9334,3.938,3.941,3.9466,3.9473,3.9504,3.9499,3.9508,3.9575,3.9598,3.9642,3.9661,3.9655,3.9741,3.9727,3.9704,3.9661,3.9741,3.9774,3.9787,3.9612,3.9611,3.961,3.9609,0,0,3.9357,3.9404,3.942,3.9441,3.9478,3.9516,3.9571,3.9616,3.9643,3.9675,3.9721,3.9784,3.9763,3.9787,3.9784,3.9823,3.9903,3.9795,3.9795,3.9814,3.9999,4.0015,4.0031,3.9893,3.9895,3.9897,3.9996,0,3.9451,3.9549,3.9551,3.964,3.9686,3.9669,3.9718,3.9745,3.9756,3.9796,3.9807,3.9851,3.9821,3.9836,3.9873,3.9886,3.994,3.9879,3.9934,3.9936,3.9926,4.0048,4.0065,4.0157,4.0009,4.0011,4.0013,0,3.9573,3.9611,3.9705,3.9738,3.9757,3.98,3.9842,3.9881,3.9913,3.9918,3.9946,3.9938,3.9994,3.9951,4.0028,3.9986,4.001,4.0019,4.0023,4.0027,3.9978,4.0054,4.0186,4.02,4.0033,4.0031,4.003,0,3.9647,3.9722,3.9789,3.9807,3.9847,3.9878,3.9895,3.9925,3.9952,3.9989,4.0007,4.0049,4.0072,4.0105,4.0108,4.0077,4.0186,4.0143,4.019,4.0191,4.0212,4.0211,4.0349,4.023,4.0229,4.0229,4.0229,0,3.9751,3.9809,3.9823,3.9864,3.9929,3.9931,3.9995,4.001,4.0037,4.0079,4.0068,4.0108,4.0111,4.0152,4.0156,4.0219,4.0229,4.0234,4.0234,4.0235,4.0234,4.0249,4.0242,4.0233,4.0232,4.0231,4.0231,0,3.9844,3.9856,3.9927,3.996,3.997,4.0016,4.0043,4.0082,4.0093,4.0147,4.016,4.0176,4.0224,4.0232,4.0288,4.029,4.0366,4.036,4.0356,4.0354,4.0401,4.0396,4.0553,4.0573,4.0441,4.0443,4.0444,0,3.9909,3.9954,3.9992,4.0021,4.0041,4.0087,4.0116,4.012,4.015,4.0191,4.0225,4.0273,4.0311,4.0389,4.0405,4.0448,4.0442,4.0494,4.0448,4.0448,4.0442,4.0439,4.0443,4.0502,4.0504,4.0505,4.0506,0,4.0022,4.0027,4.0069,4.0115,4.015,4.0185,4.0218,4.0242,4.0251,4.0286,4.0336,4.0366,4.0425,4.0472,4.0516,4.0533,4.0521,4.0521,4.0534,4.0534,4.053,4.0532,4.0379,4.0516,4.0515,4.0515,4.0514,4.0514,4.0103,4.0142,4.0176,4.0224,4.0251,4.0283,4.0321,4.0338,4.038,4.0429,4.0429,4.0485,4.0516,4.0574,4.0594,4.0637,4.062,4.0639,4.0644,4.0648,4.0653,4.0524,4.0645,4.0645,4.0644,4.0644,4.0644,0,4.0215,4.0237,4.0282,4.033,4.0368,4.0356,4.0393,4.0425,4.0474,4.0506,4.0544,4.0603,4.0649,4.067,4.0716,4.0746,4.0742,4.0758,4.0755,4.0759,4.0665,4.0649,4.076,4.076,4.076,4.076,4.076,4.076,4.0278,4.0345,4.0353,4.0433,4.0454,4.0509,4.0531,4.0561,4.0586,4.0652,4.0691,4.0706,4.0733,4.0781,4.0823,4.0828,4.0845,4.0863,4.0865,4.0777,4.0765,4.0754,4.0739,4.0867,4.0867,4.0955,4.0956,4.0957]}]]